Cloud_Cover
100 94 100 100 100 90 92 100 100 100 100 82 88 41 100 100 99 100 100 100 100 78 15 5 14 5 5 1 0 2 0 0 0 0 0 0 0 0 5 3 0 0 0
100 100 100 100 100 89 98 99 100 30 100 83 96 100 100 100 88 100 100 100 96 82 5 59 81 7 5 0 0 0 0 0 0 3 0 0 0 0 0 2 6 1 0
100 100 100 100 100 100 100 88 76 40 63 89 98 100 100 100 72 82 83 25 7 5 5 5 26 8 5 0 0 2 5 2 2 5 0 0 0 0 0 0 4 8 0
100 100 100 100 100 100 100 90 32 61 96 89 100 100 100 100 100 100 56 23 5 9 16 5 5 43 2 0 0 0 5 5 17 4 0 0 0 0 5 0 5 0 0
100 100 96 98 100 100 90 100 53 100 91 100 100 100 100 100 100 98 92 76 52 18 22 51 60 7 9 5 3 2 5 5 33 0 0 0 0 5 8 0 0 0 0
100 100 100 100 100 86 72 100 71 100 100 100 100 100 100 100 99 100 100 85 73 99 100 100 100 8 0 0 5 5 5 5 42 0 0 4 1 1 0 0 0 0 0
100 100 100 100 100 93 99 80 82 38 100 100 66 100 100 100 100 100 100 100 100 100 100 100 8 0 0 5 5 5 5 5 5 3 5 5 5 5 0 0 0 0 0
100 100 100 100 100 100 100 100 100 97 98 100 100 100 100 100 100 100 100 100 100 100 100 100 17 5 5 5 5 5 0 5 12 4 5 4 0 0 0 0 0 0 0
100 100 100 100 100 100 100 100 100 100 92 100 100 82 100 100 100 100 100 100 100 100 100 100 5 5 5 5 5 1 0 7 5 5 5 5 4 0 0 0 0 0 0
100 100 100 100 100 100 100 100 100 100 100 100 100 97 100 100 100 100 100 84 100 100 100 100 5 5 5 58 100 5 5 5 5 5 5 5 4 0 0 0 0 0 0
100 100 100 100 100 100 100 100 100 100 94 100 89 100 100 100 100 100 100 100 100 100 100 98 43 98 61 43 34 5 5 5 5 85 97 5 3 0 5 0 0 0 0
100 100 100 100 100 100 100 100 100 82 46 84 97 100 100 100 89 100 100 100 100 98 59 76 100 100 100 100 100 34 17 82 85 10 5 5 5 4 2 0 0 0 0
100 100 100 100 100 100 100 100 100 100 100 100 100 96 100 100 91 100 100 100 87 7 20 89 100 100 100 100 35 15 11 14 51 5 5 5 4 0 0 5 3 5 4
100 100 100 100 100 100 100 100 100 96 99 100 100 100 82 100 100 100 100 100 100 59 12 100 100 100 100 98 99 100 83 5 5 5 5 5 5 5 5 5 5 5 5
100 100 100 100 100 100 80 17 20 77 17 5 91 100 100 100 100 100 100 100 99 100 100 100 100 100 100 100 100 48 5 5 32 5 5 5 5 5 5 5 5 5 5
96 100 100 100 100 100 99 100 100 55 61 50 81 86 100 100 100 100 100 100 100 100 100 100 100 100 100 100 100 100 64 57 64 63 6 5 5 5 5 5 5 5 5
99 74 100 100 100 100 100 100 100 100 100 54 77 100 100 100 100 100 100 100 100 100 100 100 100 100 100 100 100 99 100 33 100 100 36 5 5 5 5 5 2 5 5
82 99 27 100 100 100 100 100 100 100 99 92 65 100 100 100 100 100 100 100 100 100 100 100 100 100 100 100 100 87 96 100 100 100 100 98 10 5 5 5 5 5 5
98 99 5 55 96 100 100 100 100 100 95 100 96 100 100 100 100 100 100 100 100 100 100 100 100 100 100 100 100 100 100 90 92 100 100 74 21 5 5 58 12 8 86
100 45 5 5 81 100 99 100 81 100 90 100 92 100 100 100 100 100 100 100 100 100 100 100 100 100 100 100 100 100 100 100 100 100 100 100 50 27 5 47 76 48 100
100 42 69 5 82 100 100 14 75 63 97 99 100 100 100 100 100 100 100 100 100 100 100 100 100 100 100 100 100 100 100 100 71 100 100 100 86 93 37 97 100 99 99
100 100 100 99 83 78 99 82 90 100 100 100 100 100 100 100 100 100 100 100 100 100 100 100 100 89 100 100 100 100 100 100 100 100 100 100 100 90 99 78 100 94 9
100 100 100 100 100 99 98 100 99 76 91 76 100 100 100 100 100 100 100 100 100 100 100 100 100 100 100 89 68 100 100 100 94 99 100 100 65 87 82 48 8 5 5
100 100 100 100 94 100 94 96 100 100 100 100 100 100 100 100 100 100 100 100 100 100 100 100 100 100 100 98 100 100 100 100 100 98 89 83 81 100 100 94 98 66 53
100 100 100 100 100 100 100 100 64 29 99 100 100 100 100 100 100 100 100 100 100 100 100 100 100 98 100 100 100 100 100 100 100 100 76 100 100 66 91 62 73 85 66
100 100 100 100 100 100 100 100 100 47 14 54 100 100 100 99 100 100 100 100 100 100 100 100 100 100 100 100 100 100 95 99 100 100 95 100 90 43 95 67 5 12 40